| time (UTC) | temp F | wind direction | speed MPH | gust MPH | rain 1hr in | rain 24hr in | rain mn in | humidity % | barometer mb |
| 20260903234536 | 69 | 227 | 0.0 | 2.0 | 0.02 | 2.61 | 2.31 | 97 | 1013.8 |
| 20260903231549 | 69 | 169 | 0.0 | 2.0 | 0.02 | 2.59 | 2.29 | 96 | 1014.6 |
| 20260903230010 | 68 | 182 | 2.0 | 5.0 | 0.03 | 2.59 | 2.29 | 96 | 1014.2 |
| 20260903224505 | 67 | 207 | 0.0 | 2.0 | 0.65 | 2.59 | 2.29 | 96 | 1013.4 |
| 20260903223045 | 67 | 184 | 0.0 | 1.0 | 1.05 | 2.58 | 2.27 | 95 | 1013.8 |
| 20260903221503 | 67 | 323 | 1.0 | 4.0 | 1.04 | 2.57 | 2.27 | 94 | 1013.3 |
| 20260903220058 | 67 | 177 | 2.0 | 5.0 | 1.03 | 2.56 | 2.25 | 92 | 1012.4 |
| 20260903214503 | 71 | 42 | 4.0 | 21.0 | 0.37 | 1.90 | 1.60 | 84 | 1014.2 |
| 20260903213030 | 81 | 253 | 1.0 | 2.0 | 0.00 | 1.53 | 1.23 | 86 | 1012.0 |
| 20260903211616 | 82 | 250 | 0.0 | 1.0 | 0.00 | 1.53 | 1.23 | 82 | 1011.5 |
| 20260903210034 | 84 | 232 | 0.0 | 0.0 | 0.00 | 1.53 | 1.23 | 77 | 1010.5 |
| 20260903204605 | 85 | 232 | 0.0 | 1.0 | 0.00 | 1.53 | 1.23 | 74 | 1011.0 |
| 20260903203026 | 87 | 258 | 1.0 | 5.0 | 0.00 | 1.53 | 1.23 | 70 | 1011.7 |
| 20260903201502 | 88 | 262 | 0.0 | 4.0 | 0.00 | 1.53 | 1.23 | 68 | 1011.3 |
| 20260903200150 | 89 | 292 | 1.0 | 6.0 | 0.00 | 1.53 | 1.23 | 68 | 1011.7 |
| 20260903194508 | 88 | 224 | 1.0 | 7.0 | 0.00 | 1.53 | 1.23 | 70 | 1011.4 |
| 20260903193058 | 87 | 244 | 1.0 | 5.0 | 0.00 | 1.53 | 1.23 | 70 | 1012.1 |
| 20260903191519 | 87 | 222 | 1.0 | 4.0 | 0.00 | 1.53 | 1.23 | 70 | 1012.6 |
| 20260903190030 | 86 | 244 | 1.0 | 5.0 | 0.00 | 1.53 | 1.23 | 72 | 1013.0 |
| 20260903184604 | 86 | 259 | 2.0 | 4.0 | 0.00 | 1.53 | 1.23 | 73 | 1013.2 |
| 20260903183032 | 85 | 167 | 2.0 | 6.0 | 0.00 | 1.53 | 1.23 | 74 | 1013.2 |
| 20260903181557 | 84 | 246 | 3.0 | 7.0 | 0.00 | 1.53 | 1.23 | 75 | 1013.4 |
| 20260903180108 | 84 | 226 | 1.0 | 5.0 | 0.00 | 1.53 | 1.23 | 78 | 1013.5 |
| 20260903174538 | 82 | 240 | 2.0 | 5.0 | 0.00 | 1.53 | 1.23 | 80 | 1013.9 |
| 20260903173009 | 81 | 240 | 1.0 | 6.0 | 0.00 | 1.53 | 1.23 | 83 | 1014.0 |
| 20260903171540 | 79 | 238 | 3.0 | 7.0 | 0.00 | 1.53 | 1.23 | 83 | 1014.0 |
| 20260903170016 | 78 | 234 | 1.0 | 5.0 | 0.00 | 1.53 | 1.23 | 91 | 1014.1 |
| 20260903163020 | 75 | 198 | 1.0 | 5.0 | 0.00 | 1.53 | 1.23 | 97 | 1014.2 |
| 20260903161611 | 73 | 178 | 1.0 | 5.0 | 0.00 | 1.53 | 1.23 | 98 | 1014.3 |
| 20260903160017 | 72 | 182 | 0.0 | 5.0 | 0.00 | 1.53 | 1.23 | 98 | 1014.4 |
| 20260903154536 | 71 | 259 | 1.0 | 4.0 | 0.01 | 1.53 | 1.23 | 99 | 1014.7 |
| 20260903153004 | 69 | 68 | 1.0 | 3.0 | 0.28 | 1.53 | 1.23 | 98 | 1014.9 |
| 20260903151543 | 68 | 172 | 0.0 | 5.0 | 0.61 | 1.53 | 1.23 | 98 | 1014.8 |
| 20260903150046 | 67 | 153 | 0.0 | 4.0 | 0.61 | 1.53 | 1.23 | 98 | 1015.0 |
| 20260903144507 | 68 | 199 | 2.0 | 9.0 | 0.60 | 1.51 | 1.21 | 98 | 1015.4 |
| 20260903143044 | 68 | 171 | 2.0 | 4.0 | 0.35 | 1.24 | 0.94 | 98 | 1015.2 |
| 20260903141612 | 68 | 36 | 1.0 | 3.0 | 0.05 | 0.93 | 0.63 | 98 | 1016.1 |
| 20260903140029 | 68 | 181 | 0.0 | 3.0 | 0.15 | 0.92 | 0.62 | 98 | 1015.4 |
| 20260903134611 | 68 | 204 | 0.0 | 3.0 | 0.26 | 0.91 | 0.61 | 98 | 1015.7 |
| 20260903133036 | 67 | 166 | 0.0 | 5.0 | 0.25 | 0.89 | 0.59 | 98 | 1015.8 |
| 20260903131605 | 67 | 207 | 0.0 | 4.0 | 0.23 | 0.87 | 0.56 | 98 | 1016.6 |
| 20260903130113 | 67 | 74 | 0.0 | 2.0 | 0.13 | 0.77 | 0.47 | 97 | 1016.5 |
| 20260903124546 | 67 | 201 | 0.0 | 3.0 | 0.01 | 0.65 | 0.35 | 97 | 1016.0 |
| 20260903123102 | 67 | 201 | 0.0 | 2.0 | 0.00 | 0.64 | 0.34 | 97 | 1016.0 |
| 20260903121538 | 67 | 269 | 0.0 | 0.0 | 0.28 | 0.64 | 0.34 | 97 | 1015.8 |
| 20260903114525 | 67 | 270 | 0.0 | 2.0 | 0.34 | 0.64 | 0.34 | 97 | 1015.8 |
| 20260903113052 | 68 | 133 | 1.0 | 5.0 | 0.34 | 0.64 | 0.34 | 97 | 1015.8 |
| 20260903111508 | 68 | 338 | 6.0 | 21.0 | 0.05 | 0.35 | 0.05 | 96 | 1016.0 |
| 20260903110040 | 71 | 203 | 0.0 | 2.0 | 0.00 | 0.30 | 0.00 | 97 | 1013.8 |
| 20260903104610 | 71 | 215 | 0.0 | 0.0 | 0.00 | 0.30 | 0.00 | 97 | 1013.7 |
| 20260903103033 | 71 | 215 | 0.0 | 0.0 | 0.00 | 0.30 | 0.00 | 97 | 1013.8 |
| 20260903101612 | 72 | 215 | 0.0 | 0.0 | 0.00 | 0.30 | 0.00 | 97 | 1013.7 |
| 20260903100035 | 72 | 204 | 0.0 | 0.0 | 0.00 | 0.30 | 0.00 | 97 | 1013.4 |
| 20260903094506 | 72 | 203 | 0.0 | 0.0 | 0.00 | 0.30 | 0.00 | 97 | 1013.3 |
| 20260903093049 | 72 | 204 | 0.0 | 0.0 | 0.00 | 0.30 | 0.00 | 97 | 1013.4 |
| 20260903091514 | 72 | 204 | 0.0 | 0.0 | 0.00 | 0.30 | 0.00 | 97 | 1013.5 |
| 20260903090107 | 72 | 203 | 0.0 | 0.0 | 0.00 | 0.30 | 0.00 | 97 | 1013.4 |
| 20260903084531 | 72 | 203 | 0.0 | 0.0 | 0.00 | 0.30 | 0.00 | 97 | 1013.6 |
| 20260903083109 | 73 | 203 | 0.0 | 2.0 | 0.00 | 0.30 | 0.00 | 97 | 1013.9 |
| 20260903081532 | 73 | 203 | 0.0 | 0.0 | 0.00 | 0.30 | 0.00 | 97 | 1013.8 |
| 20260903074522 | 74 | 189 | 0.0 | 0.0 | 0.00 | 0.30 | 0.00 | 97 | 1013.2 |
| 20260903073113 | 74 | 124 | 0.0 | 3.0 | 0.00 | 0.30 | 0.00 | 97 | 1013.0 |
| 20260903071643 | 74 | 242 | 0.0 | 4.0 | 0.00 | 0.30 | 0.00 | 97 | 1012.8 |
| 20260903064611 | 73 | 238 | 0.0 | 0.0 | 0.00 | 0.30 | 0.00 | 97 | 1012.8 |
| 20260903063036 | 73 | 238 | 0.0 | 1.0 | 0.00 | 0.30 | 0.00 | 97 | 1013.1 |
| 20260903061606 | 73 | 238 | 0.0 | 0.0 | 0.00 | 0.30 | 0.00 | 97 | 1013.0 |
| 20260903060029 | 73 | 238 | 0.0 | 1.0 | 0.00 | 0.30 | 0.00 | 97 | 1013.2 |
| 20260903054600 | 73 | 238 | 0.0 | 0.0 | 0.00 | 0.30 | 0.00 | 97 | 1013.4 |
| 20260903053023 | 73 | 238 | 0.0 | 0.0 | 0.00 | 0.30 | 0.00 | 97 | 1013.4 |
| 20260903051551 | 73 | 238 | 0.0 | 0.0 | 0.00 | 0.30 | 0.00 | 97 | 1013.3 |
| 20260903050013 | 73 | 238 | 0.0 | 1.0 | 0.00 | 0.30 | 0.00 | 97 | 1013.3 |
| 20260903044550 | 73 | 238 | 0.0 | 0.0 | 0.00 | 0.30 | 0.00 | 96 | 1013.2 |
| 20260903043018 | 72 | 238 | 0.0 | 0.0 | 0.00 | 0.30 | 0.00 | 96 | 1012.8 |
| 20260903041535 | 72 | 238 | 0.0 | 0.0 | 0.00 | 0.00 | 0.00 | 96 | 1012.5 |
| 20260903040001 | 72 | 238 | 0.0 | 0.0 | 0.00 | 0.30 | 0.00 | 96 | 1012.4 |
| 20260903034531 | 71 | 238 | 0.0 | 0.0 | 0.00 | 0.30 | 0.30 | 95 | 1012.5 |
| 20260903033002 | 71 | 238 | 0.0 | 0.0 | 0.00 | 0.30 | 0.30 | 95 | 1012.7 |
| 20260903031545 | 71 | 238 | 0.0 | 0.0 | 0.00 | 0.30 | 0.30 | 95 | 1013.0 |
| 20260903030008 | 71 | 238 | 0.0 | 0.0 | 0.00 | 0.30 | 0.30 | 94 | 1013.2 |
| 20260903024544 | 71 | 238 | 0.0 | 0.0 | 0.00 | 0.30 | 0.30 | 93 | 1013.2 |
| 20260903023020 | 71 | 238 | 0.0 | 0.0 | 0.26 | 0.30 | 0.30 | 92 | 1013.3 |
| 20260903021600 | 72 | 238 | 0.0 | 2.0 | 0.30 | 0.30 | 0.30 | 91 | 1013.4 |
| 20260903020037 | 73 | 244 | 2.0 | 8.0 | 0.30 | 0.30 | 0.30 | 89 | 1013.7 |
| 20260903014600 | 75 | 227 | 1.0 | 8.0 | 0.30 | 0.30 | 0.30 | 88 | 1014.4 |
| 20260903013019 | 81 | 232 | 0.0 | 2.0 | 0.03 | 0.03 | 0.03 | 81 | 1013.5 |
| 20260903011539 | 80 | 232 | 0.0 | 1.0 | 0.00 | 0.00 | 0.00 | 79 | 1012.9 |
| 20260903010007 | 80 | 234 | 0.0 | 1.0 | 0.00 | 0.00 | 0.00 | 79 | 1013.0 |
| 20260903004539 | 80 | 235 | 0.0 | 1.0 | 0.00 | 0.00 | 0.00 | 78 | 1013.0 |
| 20260903003040 | 82 | 235 | 0.0 | 1.0 | 0.00 | 0.00 | 0.00 | 76 | 1012.7 |
| 20260903001508 | 83 | 214 | 0.0 | 0.0 | 0.00 | 0.00 | 0.00 | 73 | 1012.8 |
| 20260903000047 | 84 | 215 | 0.0 | 1.0 | 0.00 | 0.00 | 0.00 | 70 | 1012.8 |